Weather in Ixtepec

Mexico     16°33′27″N   95°05′58″W
temp.,
°C
wind,
m/s
gust,
m/s
humid.,
%
clouds,
%
prec.,
mm/h
press.,
hPa
HPBL,
m
29 july, thu
thu2901:00+27n6137247 0.1 1012833
04:00+26n6137229 0.0 1011744
07:00+25n51378100 0.0 1012583
10:00+29n6958100 0.0 10141029
13:00+30nne61056100 0.0 10121031
16:00+33nne81046100 0.0 10091567
19:00+28n81367100 0.0 1010996
22:00+26n51278100 0.1 1012732
30 july, fri
fri3001:00+24ne2494100 5.3 1013222
04:00+23nne1298100 33.0 1013137
07:00+23n3794100 34.0 1012244
10:00+27n7137347 0.0 1013973
13:00+28n81266100 0.0 10121058
16:00+28n7136721 0.0 1011982
19:00+28n7136699 0.0 10111056
22:00+27n71467100 0.0 1013910
31 july, sat
sat3101:00+25n5137815 0.0 1014653
04:00+25n6147739 0.0 1012728
07:00+25n5147615 0.0 1013667
10:00+29n713615 0.0 10141240
13:00+33n913495 0.0 10131592
16:00+33n912515 0.0 10111461
19:00+28n8147113 0.0 10121046
22:00+26n714755 0.0 1013824
1 august, sun
sun101:00+26n613766 0.0 1014740
04:00+25n512809 0.0 1012568
07:00+25n5147712 0.0 1013646
10:00+30n7126051 0.0 10141207
13:00+33n9124910 0.0 10131605
16:00+33n9115194 0.0 10111267
19:00+29n8126979 0.0 1012900
22:00+25n3984100 5.8 1015429
2 august, mon
mon201:00+24n2794100 8.4 1014288
04:00+23n239589 2.9 1013128
07:00+23n379328 3.0 1014227
10:00+28n5117011 0.0 1015704
13:00+33n78525 0.0 10131287
16:00+33n78506 0.0 10101373
19:00+29n610664 0.0 1011785
22:00+27nnw511744 0.0 1012496